[[{"header":{"parameterUnit":"m.s-1","parameterCategory":2,"la1":30.2991,"la2":30.254,"lo1":-89.0895,"lo2":-89.0444,"dy":0.0017,"dx":0.0017,"nx":28,"ny":28,"refTime":"2025-01-23T09:00:00:Z","depth":"0","parameterNumber":2,"parameterNumberName":"U-component_of_CURRENTS"},"data":[0,0,0,0,0,0,0,0,0,0,0,0,0,0,0,0,0,0,0,0,0,0,0,0,0,0,0,0,0,0,0,0,0,0,0,0,0,0,0,0,0,0,0,0,0,0,0,0,0,0,0,0,0,0,0,0,0,0,0.2268,0.2267,0,0.2191,0.219,0.2188,0.2129,0.2129,0.2129,0.2129,0.2066,0.2065,0.2063,0,0,0,0,0,0,0,0,0,0,0,0,0,0.2355,0.2354,0.2268,0.2267,0.2267,0.2191,0.2189,0.2188,0.2129,0.2129,0.2129,0.2129,0.2067,0.2065,0.2063,0,0,0,0,0,0,0,0,0,0,0,0,0,0.2297,0.2353,0.2268,0.2232,0.2228,0.2191,0.2189,0.2187,0.2129,0.2129,0.2129,0.2129,0.2067,0.2065,0.2063,0.2051,0,0,0.2056,0.2055,0,0,0,0,0,0,0,0,0.23,0.2293,0.2238,0.2234,0.223,0.2174,0.2198,0.2144,0.2129,0.2162,0.2129,0.2129,0.2107,0.2101,0.208,0.2048,0.2045,0.2055,0.2054,0.2053,0.2052,0,0,0,0,0,0,0,0.2304,0.2296,0.2232,0.2237,0.2233,0.2217,0.2208,0.2187,0.2132,0.2159,0.2156,0.2155,0.2104,0.2082,0.2078,0.2044,0.2055,0.2053,0.2052,0.2051,0.2058,0.206,0,0,0,0,0,0,0.2324,0.23,0.2235,0.223,0.2271,0.2216,0.2206,0.2188,0.2132,0.2125,0.2155,0.2153,0.2086,0.2081,0.2076,0.216,0.2053,0.2051,0.2049,0.2057,0.2059,0.206,0,0,0,0,0,0,0.2326,0.2318,0.2238,0.2269,0.2258,0.2215,0.2195,0.2187,0.2176,0.213,0.2122,0.2156,0.2086,0.2079,0.2061,0.2154,0.205,0.2047,0.2055,0.2057,0.2059,0.2264,0,0,0,0,0,0,0.2329,0.2319,0.2315,0.2269,0.2257,0.2242,0.2196,0.2186,0.2178,0.2174,0.2128,0.2121,0.2085,0.2065,0.2059,0.2148,0.2046,0.2053,0.2056,0.2059,0.2255,0.2273,0.2289,0,0,0,0,0,0.2332,0.2328,0.2315,0.2308,0.2251,0.2244,0.2236,0.2202,0.2178,0.2188,0.2142,0.2123,0.2081,0.2063,0.2056,0.2148,0.2051,0.2055,0.2058,0.2248,0.227,0.2288,0,0,0,0,0,0,0.2358,0.2321,0.2305,0.2289,0.2282,0.2236,0.2236,0.2215,0.2183,0.2175,0.2125,0.2115,0.2151,0.2097,0.2078,0.2153,0.2071,0.2073,0.2218,0.2238,0.2254,0.2341,0.2044,0,0,0,0,0,0.2365,0.2353,0.2327,0.2317,0.2316,0.2279,0.2271,0.2252,0.222,0.2205,0.2172,0.2144,0.2158,0.2152,0.214,0.2159,0.2185,0.2215,0.2231,0.2246,0.2309,0.244,0.2477,0.2072,0.2072,0.2072,0,0,0.2369,0.2352,0.2342,0.2323,0.2306,0.2331,0.2273,0.2271,0.2306,0.2205,0.2226,0.2203,0.2174,0.2216,0.2227,0.2182,0.236,0.2251,0.2265,0.232,0.2448,0.2489,0.2525,0.2075,0.2074,0.2074,0,0,0.2403,0.2362,0.2382,0.2385,0.2382,0.2366,0.2376,0.2346,0.2349,0.2356,0.2324,0.236,0.2314,0.2358,0.2366,0.2462,0.2451,0.2436,0.2593,0.2718,0.2755,0.2788,0.2826,0.2861,0.2438,0.2438,0.2439,0,0.2426,0.244,0.2391,0.2426,0.2447,0.2395,0.2448,0.2444,0.2415,0.2455,0.2388,0.2443,0.2413,0.2545,0.2577,0.2519,0.2542,0.2526,0.275,0.2783,0.2814,0.2845,0.2881,0.2449,0.2448,0.2446,0.2445,0,0.2484,0.2508,0.2523,0.2554,0.2563,0.2596,0.2595,0.2611,0.2597,0.2616,0.2718,0.2686,0.2735,0.2734,0.2684,0.289,0.2819,0.277,0.272,0.2869,0.2888,0.2923,0.2463,0.246,0.2457,0.2454,0,0,0.256,0.2565,0.2588,0.2625,0.2642,0.266,0.2724,0.2801,0.2878,0.2877,0.3003,0.3055,0.3055,0.3066,0.3032,0.3137,0.3345,0.305,0.3052,0.3124,0.3574,0.3335,0.3347,0.3339,0.3347,0.3353,0.3486,0,0.2655,0.2736,0.272,0.2821,0.2871,0.2854,0.2928,0.2982,0.3013,0.3106,0.3161,0.3244,0.3176,0.3205,0.332,0.3325,0.3451,0.3311,0.3389,0.3391,0.3193,0.3387,0.3137,0.3221,0.3519,0.3525,0.3529,0,0.2775,0.2808,0.2903,0.2975,0.2998,0.3044,0.3158,0.3214,0.3333,0.3368,0.3483,0.3483,0.3638,0.3544,0.3732,0.3636,0.366,0.3665,0.3669,0.3417,0.3219,0.3125,0.3271,0.3166,0.358,0.3576,0.3572,0,0.2891,0.297,0.3043,0.3062,0.3112,0.3169,0.3212,0.3313,0.3364,0.354,0.3576,0.3765,0.3788,0.3926,0.3879,0.3842,0.4044,0.3981,0.3811,0.3789,0.3582,0.3528,0.3677,0.4206,0.4206,0.4206,0.4205,0,0.3029,0.3105,0.3096,0.3137,0.3244,0.3257,0.3382,0.3456,0.3549,0.3616,0.3714,0.3767,0.3888,0.3948,0.3988,0.3967,0.4137,0.3909,0.3853,0.3629,0.358,0.3474,0.3445,0.421,0.4209,0.4208,0.4207,0,0.3152,0.3151,0.3226,0.327,0.3291,0.3363,0.3417,0.3482,0.3579,0.3658,0.3703,0.3789,0.3847,0.3912,0.4065,0.4016,0.3949,0.4039,0.3706,0.361,0.3314,0.3302,0.334,0.3257,0.3918,0.3914,0.391,0,0.3222,0.3267,0.3294,0.3299,0.3313,0.339,0.3421,0.3509,0.3533,0.3632,0.3644,0.3716,0.3709,0.3797,0.3768,0.3812,0.3775,0.3601,0.3519,0.3327,0.3279,0.3215,0.3141,0.3313,0.3305,0.3298,0.3293,0,0.3327,0.3314,0.3324,0.3325,0.3343,0.3363,0.3398,0.3417,0.3478,0.3503,0.3498,0.3509,0.3517,0.3393,0.3394,0.3405,0.3387,0.3455,0.3408,0.297,0.2773,0.2647,0.3139,0.3232,0.3238,0.3243,0.3246,0.3248,0.3359,0.3355,0.331,0.3294,0.3305,0.326,0.3223,0.3224,0.3206,0.3137,0.3264,0.3159,0.3096,0.3024,0.302,0.2803,0.2938,0.2709,0.2757,0.2744,0.2544,0.2843,0.276,0.2763,0.2766,0.2768,0.2771,0,0.3307,0.3266,0.3268,0.3193,0.3115,0.3155,0.3114,0.3007,0.2886,0.2887,0.2824,0.2643,0.2486,0.2453,0.2259,0.2144,0.2125,0.2096,0.2019,0.202,0.2416,0.2261,0.1881,0.1881,0.1881,0.1881,0.1881,0.1881,0.3264,0.3177,0.3131,0.2956,0.2906,0.2737,0.2657,0.255,0.2495,0.2274,0.2121,0.2105,0.2098,0.1951,0.176,0.1718,0.1668,0.1518,0.1656,0.196,0.2023,0.2083,0.1934,0.1492,0.1491,0.1125,0.1123,0.1121]},{"header":{"parameterUnit":"m.s-1","parameterCategory":2,"la1":30.2991,"la2":30.254,"lo1":-89.0895,"lo2":-89.0444,"dy":0.0017,"dx":0.0017,"nx":28,"ny":28,"refTime":"2025-01-23T09:00:00:Z","depth":"0","parameterNumber":3,"parameterNumberName":"V-component_of_CURRENTS"},"data":[0,0,0,0,0,0,0,0,0,0,0,0,0,0,0,0,0,0,0,0,0,0,0,0,0,0,0,0,0,0,0,0,0,0,0,0,0,0,0,0,0,0,0,0,0,0,0,0,0,0,0,0,0,0,0,0,0,0,-0.0201,-0.0201,0,-0.0205,-0.0205,-0.0205,-0.0225,-0.0225,-0.0226,-0.0227,-0.0259,-0.026,-0.026,0,0,0,0,0,0,0,0,0,0,0,0,0,-0.0228,-0.0227,-0.0201,-0.0201,-0.0202,-0.0205,-0.0205,-0.0205,-0.0225,-0.0225,-0.0226,-0.0227,-0.0259,-0.026,-0.026,0,0,0,0,0,0,0,0,0,0,0,0,0,-0.0221,-0.0227,-0.0201,-0.0213,-0.0214,-0.0205,-0.0205,-0.0205,-0.0225,-0.0225,-0.0226,-0.0227,-0.0259,-0.0259,-0.026,-0.0245,0,0,-0.0261,-0.0262,0,0,0,0,0,0,0,0,-0.0221,-0.022,-0.0211,-0.0212,-0.0213,-0.0217,-0.0226,-0.022,-0.0224,-0.0219,-0.0227,-0.0228,-0.0248,-0.0249,-0.0246,-0.0247,-0.0248,-0.0261,-0.0262,-0.0262,-0.0262,0,0,0,0,0,0,0,-0.0222,-0.022,-0.0202,-0.0211,-0.0213,-0.0224,-0.0223,-0.0225,-0.0228,-0.022,-0.0222,-0.0224,-0.0249,-0.0245,-0.0247,-0.0249,-0.0261,-0.0262,-0.0262,-0.0262,-0.0205,-0.0203,0,0,0,0,0,0,-0.0222,-0.022,-0.0201,-0.0202,-0.0221,-0.0222,-0.0222,-0.0214,-0.0227,-0.0231,-0.0223,-0.0225,-0.0244,-0.0246,-0.0248,-0.0194,-0.0262,-0.0262,-0.0263,-0.0207,-0.0205,-0.0203,0,0,0,0,0,0,-0.0222,-0.022,-0.0201,-0.0213,-0.0212,-0.0221,-0.0211,-0.0213,-0.0215,-0.023,-0.0233,-0.0223,-0.0245,-0.0247,-0.0241,-0.0197,-0.0263,-0.0263,-0.0209,-0.0206,-0.0204,-0.0111,0,0,0,0,0,0,-0.0223,-0.0219,-0.021,-0.0212,-0.0211,-0.0185,-0.0211,-0.0213,-0.0215,-0.0217,-0.0231,-0.0235,-0.0246,-0.024,-0.0241,-0.0199,-0.0263,-0.0211,-0.0208,-0.0204,-0.0116,-0.0105,-0.0096,0,0,0,0,0,-0.0223,-0.0197,-0.021,-0.0208,-0.0199,-0.0184,-0.0183,-0.0193,-0.0214,-0.0201,-0.0213,-0.0235,-0.0219,-0.0239,-0.0241,-0.0198,-0.0213,-0.0209,-0.0205,-0.012,-0.0107,-0.0096,0,0,0,0,0,0,-0.0199,-0.0197,-0.0211,-0.0185,-0.0185,-0.0188,-0.0175,-0.0192,-0.0191,-0.0196,-0.022,-0.0222,-0.0199,-0.0213,-0.0235,-0.0171,-0.0216,-0.0212,-0.0151,-0.0139,-0.0129,-0.0068,-0.0264,0,0,0,0,0,-0.0192,-0.0173,-0.0179,-0.0159,-0.0157,-0.017,-0.0168,-0.0176,-0.0178,-0.0179,-0.0193,-0.0196,-0.018,-0.0175,-0.0172,-0.0142,-0.0135,-0.0113,-0.0103,-0.0094,-0.0045,0.0004,0.0024,-0.0189,-0.0189,-0.0189,0,0,-0.0178,-0.0174,-0.0165,-0.0153,-0.0155,-0.0135,-0.0169,-0.0157,-0.0134,-0.0182,-0.0157,-0.0168,-0.0167,-0.0128,-0.0117,-0.0136,-0.0038,-0.0089,-0.0081,-0.0035,0.0011,0.0032,0.0051,-0.0186,-0.0187,-0.0187,0,0,-0.0145,-0.0137,-0.0119,-0.011,-0.0109,-0.0106,-0.0103,-0.0108,-0.0101,-0.0086,-0.0102,-0.0073,-0.0083,-0.0044,-0.0032,0.0038,0.0008,0.0019,0.0129,0.0175,0.0194,0.021,0.0211,0.0227,0.0032,0.0032,0.0032,0,-0.0138,-0.0105,-0.011,-0.009,-0.0068,-0.0091,-0.0059,-0.0049,-0.0052,-0.0013,-0.0067,-0.0002,-0.0024,0.008,0.0099,0.0068,0.0065,0.0079,0.0191,0.0207,0.0223,0.0219,0.0236,0.0037,0.0036,0.0036,0.0035,0,-0.0098,-0.0067,-0.0048,-0.0025,-0.0002,0.0027,0.0039,0.0067,0.0061,0.0081,0.0158,0.0146,0.0201,0.0188,0.016,0.0276,0.0225,0.019,0.0163,0.0251,0.024,0.0256,0.0044,0.0042,0.0041,0.0039,0,0,-0.0106,-0.0034,-0.0033,0.0018,0.0041,0.008,0.0131,0.0202,0.0285,0.0272,0.0381,0.0399,0.0407,0.0425,0.0403,0.0441,0.0512,0.0366,0.0366,0.0373,0.0583,0.0451,0.0454,0.0487,0.0491,0.0494,0.0518,0,-0.008,0.001,0.0019,0.0113,0.0177,0.0195,0.0266,0.0331,0.0378,0.0476,0.0498,0.0573,0.0492,0.0527,0.056,0.0532,0.0564,0.0508,0.0494,0.0494,0.0372,0.0473,0.0425,0.0435,0.0533,0.0536,0.0538,0,-0.006,0.0017,0.0123,0.0253,0.0277,0.0321,0.0477,0.0537,0.0662,0.0699,0.0786,0.0789,0.0866,0.0764,0.0799,0.076,0.0697,0.0656,0.0655,0.0526,0.0394,0.0371,0.0459,0.0384,0.0561,0.0559,0.0558,0,-0.0006,0.0085,0.0195,0.0232,0.0362,0.0421,0.0487,0.0618,0.0711,0.0855,0.0924,0.1008,0.1034,0.1014,0.0896,0.0863,0.0898,0.0838,0.0669,0.0656,0.0616,0.0592,0.0647,0.0884,0.0884,0.0884,0.0884,0,0.0049,0.014,0.0232,0.0311,0.0459,0.0505,0.0672,0.0757,0.0886,0.1008,0.1047,0.1129,0.1094,0.1082,0.0985,0.0867,0.0965,0.0731,0.068,0.0637,0.0617,0.0546,0.0491,0.0885,0.0885,0.0885,0.0884,0,0.0134,0.0177,0.0329,0.0462,0.0501,0.0621,0.0758,0.0875,0.0979,0.1132,0.117,0.1236,0.1207,0.1135,0.1082,0.0954,0.08,0.0793,0.0714,0.0654,0.0411,0.0362,0.0361,0.0326,0.0652,0.0649,0.0647,0,0.021,0.0296,0.0452,0.0519,0.058,0.0726,0.0816,0.0929,0.1023,0.1176,0.1233,0.126,0.1256,0.1128,0.0944,0.0784,0.0705,0.0608,0.055,0.0432,0.0343,0.0313,0.0284,0.0522,0.0519,0.0517,0.0515,0,0.0376,0.0412,0.0522,0.0641,0.0728,0.085,0.0957,0.1038,0.1146,0.1244,0.1308,0.1318,0.1188,0.1004,0.0774,0.0654,0.0533,0.0544,0.0489,0.0317,0.0234,0.0161,0.0434,0.0492,0.0494,0.0496,0.0497,0.0498,0.0488,0.0558,0.0639,0.0743,0.0834,0.0904,0.0983,0.1063,0.1174,0.1274,0.1298,0.1314,0.108,0.0763,0.0601,0.0292,0.033,0.0194,0.0164,0.016,0.0083,0.0268,0.0213,0.0214,0.0214,0.0215,0.0215,0,0.0572,0.0607,0.072,0.08,0.0866,0.0906,0.1017,0.1068,0.1139,0.1248,0.1279,0.1151,0.0864,0.0608,0.0179,-0.0031,-0.0054,-0.0121,-0.0118,-0.0113,0.012,0.0068,-0.0099,-0.0099,-0.0099,-0.0099,-0.0099,-0.0098,0.0611,0.0669,0.0684,0.0765,0.0821,0.0876,0.092,0.1007,0.1094,0.115,0.1155,0.1145,0.0927,0.0262,-0.0169,-0.0258,-0.0334,-0.0415,-0.0418,-0.0227,-0.0197,-0.0169,-0.0226,-0.0453,-0.0453,-0.062,-0.0622,-0.0623]}],[{"header":{"parameterUnit":"m.s-1","parameterCategory":2,"la1":30.2991,"la2":30.254,"lo1":-89.0895,"lo2":-89.0444,"dy":0.0017,"dx":0.0017,"nx":28,"ny":28,"refTime":"2025-01-23T09:00:00:Z","depth":"2","parameterNumber":2,"parameterNumberName":"U-component_of_CURRENTS"},"data":[0,0,0,0,0,0,0,0,0,0,0,0,0,0,0,0,0,0,0,0,0,0,0,0,0,0,0,0,0,0,0,0,0,0,0,0,0,0,0,0,0,0,0,0,0,0,0,0,0,0,0,0,0,0,0,0,0,0,0.1702,0.1702,0,0.1699,0.1699,0.1699,0.1682,0.1682,0.1682,0.1681,0.164,0.1639,0.1639,0,0,0,0,0,0,0,0,0,0,0,0,0,0.1738,0.1737,0.1702,0.1702,0.1702,0.1699,0.1699,0.1699,0.1682,0.1682,0.1681,0.1681,0.164,0.164,0.1639,0,0,0,0,0,0,0,0,0,0,0,0,0,0.1727,0.1737,0.1702,0.1694,0.1693,0.1699,0.1699,0.1699,0.1682,0.1682,0.1681,0.1681,0.1641,0.164,0.1638,0.1641,0,0,0.1635,0.1634,0,0,0,0,0,0,0,0,0.1727,0.1725,0.1695,0.1695,0.1694,0.1691,0.1697,0.1678,0.1682,0.1686,0.1681,0.1681,0.1655,0.1652,0.1652,0.1639,0.1637,0.1635,0.1634,0.1634,0.1633,0,0,0,0,0,0,0,0.1728,0.1726,0.17,0.1695,0.1695,0.1706,0.1704,0.1694,0.1671,0.1685,0.1684,0.1686,0.1654,0.1653,0.1651,0.1637,0.1635,0.1634,0.1633,0.1633,0.1682,0.1684,0,0,0,0,0,0,0.1728,0.1726,0.17,0.17,0.1711,0.1706,0.1703,0.1692,0.1672,0.167,0.1686,0.1685,0.1656,0.1652,0.1649,0.1731,0.1634,0.1632,0.1632,0.168,0.1683,0.1685,0,0,0,0,0,0,0.1729,0.1726,0.17,0.1715,0.1712,0.1706,0.1694,0.1692,0.1694,0.1674,0.167,0.1689,0.1655,0.1651,0.1639,0.1726,0.1632,0.1631,0.1678,0.1681,0.1684,0.1841,0,0,0,0,0,0,0.173,0.1725,0.173,0.1714,0.1711,0.1714,0.1694,0.1692,0.1695,0.1694,0.1675,0.1671,0.1654,0.1641,0.1638,0.1722,0.163,0.1675,0.1679,0.1683,0.1834,0.1849,0.1863,0,0,0,0,0,0.1731,0.1734,0.173,0.1728,0.1713,0.1715,0.1715,0.1708,0.1696,0.1706,0.1683,0.1671,0.1665,0.1641,0.1637,0.1723,0.1673,0.1678,0.1682,0.1827,0.1846,0.1863,0,0,0,0,0,0,0.1745,0.1732,0.1727,0.1724,0.1726,0.1713,0.1726,0.1713,0.1704,0.1706,0.1674,0.1668,0.1703,0.1673,0.1647,0.1747,0.1677,0.1681,0.1789,0.1807,0.1821,0.1899,0.1629,0,0,0,0,0,0.1753,0.1758,0.1744,0.1747,0.1749,0.1738,0.1741,0.1738,0.1724,0.172,0.1709,0.1705,0.1721,0.1726,0.1726,0.176,0.1773,0.1818,0.1833,0.1846,0.1906,0.1984,0.2013,0.17,0.17,0.17,0,0,0.1759,0.1755,0.1757,0.1753,0.1754,0.1774,0.1739,0.1753,0.1794,0.1717,0.1766,0.1749,0.1736,0.179,0.1806,0.1775,0.1932,0.1852,0.1863,0.1917,0.1992,0.2023,0.2051,0.1703,0.1702,0.1702,0,0,0.1787,0.1773,0.1794,0.1796,0.1807,0.1809,0.1814,0.1813,0.184,0.1862,0.1845,0.1891,0.1866,0.1925,0.1937,0.2032,0.2004,0.2008,0.2157,0.2231,0.2259,0.2284,0.2308,0.2334,0.2021,0.2022,0.2022,0,0.1812,0.1823,0.1802,0.1823,0.185,0.1827,0.1871,0.1891,0.1894,0.1951,0.1895,0.1967,0.1962,0.2082,0.2127,0.2081,0.2076,0.2091,0.2256,0.2281,0.2303,0.2323,0.235,0.203,0.2029,0.2028,0.2027,0,0.1833,0.1868,0.1881,0.191,0.1932,0.1965,0.199,0.206,0.2078,0.2087,0.2193,0.2186,0.2244,0.2252,0.2221,0.2392,0.2318,0.2262,0.2221,0.2346,0.2356,0.2381,0.2041,0.2039,0.2036,0.2034,0,0,0.1851,0.19,0.1904,0.1979,0.1991,0.2034,0.2137,0.224,0.2343,0.2346,0.248,0.2533,0.2521,0.254,0.2519,0.2597,0.2752,0.2508,0.2508,0.2552,0.2873,0.2575,0.2572,0.2703,0.2709,0.2713,0.2805,0,0.1899,0.1985,0.1981,0.2105,0.2177,0.2226,0.2323,0.2412,0.2472,0.2586,0.2631,0.27,0.2623,0.2668,0.2741,0.2739,0.2829,0.2731,0.2731,0.2733,0.247,0.2597,0.2445,0.2492,0.2829,0.2833,0.2836,0,0.1932,0.2002,0.2114,0.2289,0.232,0.2384,0.26,0.2681,0.2817,0.2864,0.2945,0.2918,0.3049,0.2955,0.3057,0.2977,0.2976,0.2965,0.2966,0.2666,0.2483,0.2427,0.2524,0.2877,0.2874,0.2871,0.2868,0,0.2024,0.2125,0.2241,0.2275,0.2419,0.2542,0.2641,0.2778,0.285,0.3046,0.3069,0.3186,0.3208,0.3262,0.3163,0.3148,0.322,0.3193,0.2938,0.2914,0.2781,0.2733,0.3337,0.3337,0.3337,0.3337,0.3336,0,0.2128,0.2258,0.2297,0.239,0.2555,0.2626,0.2806,0.2957,0.3054,0.3096,0.3189,0.3199,0.3281,0.326,0.3247,0.3103,0.3279,0.3012,0.2942,0.2817,0.2774,0.3101,0.3072,0.334,0.3339,0.3338,0.3338,0,0.2287,0.2308,0.2461,0.258,0.2619,0.2753,0.2865,0.2942,0.3063,0.3134,0.3179,0.3227,0.3186,0.3173,0.3232,0.3134,0.3098,0.3013,0.2812,0.2715,0.275,0.2729,0.2837,0.2828,0.282,0.2814,0.2808,0,0.2405,0.2438,0.2554,0.2568,0.2638,0.2774,0.2815,0.2968,0.2981,0.308,0.3065,0.3075,0.2978,0.2892,0.2817,0.275,0.2851,0.2543,0.2516,0.2791,0.2713,0.2703,0.2693,0.2421,0.2412,0.2406,0.24,0,0.2539,0.2524,0.2612,0.2604,0.265,0.2697,0.2764,0.2768,0.2871,0.2877,0.2806,0.2758,0.2677,0.2483,0.2368,0.2324,0.2544,0.2393,0.281,0.2497,0.2384,0.231,0.2318,0.2341,0.2347,0.2351,0.2354,0.2357,0.2582,0.2588,0.2562,0.2545,0.2581,0.2528,0.2513,0.2502,0.2473,0.2408,0.2478,0.2337,0.234,0.2032,0.1929,0.1893,0.2073,0.2043,0.2073,0.2108,0.1971,0.1842,0.1672,0.1674,0.1676,0.1677,0.1679,0,0.2488,0.2449,0.2444,0.2409,0.234,0.2425,0.2356,0.2249,0.2111,0.2126,0.2029,0.1787,0.1632,0.164,0.1496,0.1452,0.1562,0.1395,0.157,0.1628,0.168,0.153,0.1111,0.1108,0.1107,0.1105,0,0,0.2422,0.234,0.2271,0.2094,0.2081,0.1956,0.1879,0.1774,0.1722,0.155,0.1483,0.1549,0.1595,0.1327,0.1286,0.1178,0.141,0.1138,0.1602,0.187,0.192,0.2059,0.1888,0,0,0,0,0]},{"header":{"parameterUnit":"m.s-1","parameterCategory":2,"la1":30.2991,"la2":30.254,"lo1":-89.0895,"lo2":-89.0444,"dy":0.0017,"dx":0.0017,"nx":28,"ny":28,"refTime":"2025-01-23T09:00:00:Z","depth":"2","parameterNumber":3,"parameterNumberName":"V-component_of_CURRENTS"},"data":[0,0,0,0,0,0,0,0,0,0,0,0,0,0,0,0,0,0,0,0,0,0,0,0,0,0,0,0,0,0,0,0,0,0,0,0,0,0,0,0,0,0,0,0,0,0,0,0,0,0,0,0,0,0,0,0,0,0,0.0134,0.0134,0,0.0118,0.0118,0.0118,0.0107,0.0107,0.0107,0.0107,0.0104,0.0104,0.0104,0,0,0,0,0,0,0,0,0,0,0,0,0,0.0123,0.0124,0.0134,0.0134,0.0134,0.0118,0.0118,0.0117,0.0107,0.0107,0.0107,0.0107,0.0104,0.0104,0.0104,0,0,0,0,0,0,0,0,0,0,0,0,0,0.0119,0.0124,0.0134,0.0127,0.0127,0.0118,0.0118,0.0117,0.0107,0.0107,0.0107,0.0107,0.0104,0.0104,0.0104,0.0103,0,0,0.0103,0.0103,0,0,0,0,0,0,0,0,0.0119,0.0119,0.0128,0.0128,0.0127,0.0115,0.0113,0.0113,0.0107,0.0114,0.0107,0.0107,0.011,0.0109,0.0105,0.0103,0.0102,0.0103,0.0103,0.0103,0.0103,0,0,0,0,0,0,0,0.012,0.012,0.0127,0.0128,0.0127,0.0114,0.0114,0.0113,0.0111,0.0113,0.0112,0.0112,0.0109,0.0105,0.0104,0.0102,0.0103,0.0103,0.0103,0.0103,0.0109,0.011,0,0,0,0,0,0,0.0125,0.012,0.0127,0.0126,0.0124,0.0115,0.0114,0.0118,0.0111,0.011,0.0112,0.0112,0.0105,0.0105,0.0104,0.0128,0.0103,0.0103,0.0103,0.0109,0.0109,0.011,0,0,0,0,0,0,0.0125,0.0126,0.0128,0.0123,0.0123,0.0115,0.012,0.0118,0.0115,0.011,0.0109,0.0111,0.0105,0.0105,0.0109,0.0127,0.0103,0.0103,0.0109,0.0109,0.0109,0.016,0,0,0,0,0,0,0.0125,0.0126,0.0129,0.0124,0.0123,0.0127,0.012,0.0118,0.0115,0.0115,0.0109,0.0109,0.0105,0.0109,0.0109,0.0126,0.0103,0.0108,0.0109,0.0109,0.0158,0.0162,0.0165,0,0,0,0,0,0.0125,0.0132,0.0129,0.013,0.0128,0.0128,0.0126,0.0119,0.0115,0.0116,0.0114,0.0109,0.0112,0.0109,0.0109,0.0127,0.0108,0.0109,0.0109,0.0156,0.0161,0.0165,0,0,0,0,0,0,0.0126,0.0131,0.0128,0.0136,0.0133,0.0126,0.0126,0.0121,0.0119,0.0119,0.0113,0.0113,0.0122,0.0114,0.0111,0.0128,0.0109,0.0109,0.0144,0.0149,0.0152,0.0207,0.0103,0,0,0,0,0,0.0128,0.0137,0.0135,0.014,0.014,0.0133,0.0131,0.0127,0.0125,0.0124,0.0118,0.0116,0.0123,0.0127,0.0124,0.0135,0.0135,0.0145,0.0148,0.0152,0.0195,0.0193,0.0202,0.0111,0.0111,0.0111,0,0,0.0129,0.0134,0.0138,0.0141,0.0138,0.0152,0.0132,0.0132,0.0149,0.0124,0.0138,0.0125,0.0127,0.014,0.0143,0.0138,0.0171,0.0152,0.0156,0.0198,0.0195,0.0204,0.0212,0.0112,0.0112,0.0112,0,0,0.0148,0.0141,0.0161,0.0163,0.0164,0.016,0.0162,0.0154,0.0157,0.0163,0.0156,0.0165,0.0154,0.0175,0.0183,0.0207,0.0187,0.0186,0.0259,0.0255,0.0264,0.0271,0.0261,0.0267,0.0193,0.0193,0.0193,0,0.0148,0.0184,0.0164,0.0186,0.0203,0.0169,0.0203,0.0193,0.0187,0.0214,0.0173,0.02,0.0185,0.0246,0.0249,0.0222,0.0207,0.0242,0.0263,0.027,0.0277,0.0265,0.0271,0.0196,0.0196,0.0195,0.0195,0,0.0189,0.0218,0.0229,0.0253,0.0258,0.0279,0.0271,0.0281,0.027,0.027,0.0306,0.0281,0.0312,0.0291,0.028,0.0329,0.0297,0.0262,0.0257,0.029,0.0274,0.028,0.0199,0.0198,0.0198,0.0197,0,0,0.0203,0.0253,0.0259,0.0306,0.0306,0.0328,0.0353,0.0393,0.0449,0.0405,0.0476,0.0462,0.0446,0.0456,0.043,0.0429,0.044,0.0371,0.0369,0.0373,0.0424,0.0314,0.0309,0.0396,0.0398,0.04,0.0387,0,0.0253,0.0334,0.0333,0.0413,0.0466,0.0457,0.0505,0.0528,0.0529,0.0573,0.0549,0.0588,0.0506,0.0531,0.051,0.0466,0.046,0.0447,0.0385,0.0384,0.0292,0.0315,0.0334,0.0317,0.0392,0.0393,0.0394,0,0.0319,0.0368,0.046,0.0561,0.0582,0.0607,0.0705,0.0739,0.0777,0.0787,0.0795,0.0762,0.077,0.0682,0.0626,0.0613,0.0539,0.0486,0.0483,0.038,0.0286,0.03,0.0324,0.0403,0.0402,0.0401,0.0401,0,0.0389,0.0478,0.0567,0.059,0.0667,0.0714,0.0754,0.0808,0.0862,0.0919,0.0952,0.0937,0.0936,0.0844,0.0689,0.0672,0.0601,0.056,0.0399,0.0389,0.04,0.0387,0.0539,0.0539,0.0539,0.0539,0.0539,0,0.047,0.0547,0.061,0.0646,0.0777,0.0799,0.0913,0.0966,0.1022,0.1082,0.1059,0.1084,0.0974,0.0891,0.0749,0.0573,0.0638,0.0436,0.0388,0.041,0.04,0.0474,0.0467,0.0539,0.0539,0.0539,0.0539,0,0.0544,0.0582,0.0694,0.0775,0.0809,0.09,0.0985,0.1061,0.112,0.1191,0.1212,0.1204,0.1093,0.094,0.0799,0.0654,0.0502,0.0423,0.0445,0.0398,0.0288,0.0284,0.0285,0.0281,0.0278,0.0275,0.0273,0,0.0608,0.0668,0.077,0.0825,0.0853,0.0965,0.1035,0.1108,0.1156,0.1235,0.1259,0.1213,0.113,0.088,0.0658,0.0419,0.041,0.0292,0.0265,0.0314,0.0267,0.0267,0.0267,0.0301,0.0299,0.0297,0.0296,0,0.0706,0.0726,0.0781,0.0885,0.0958,0.1065,0.114,0.1186,0.1256,0.1295,0.1299,0.125,0.1037,0.08,0.0503,0.035,0.0329,0.0249,0.0327,0.0334,0.032,0.0276,0.0278,0.0283,0.0284,0.0285,0.0286,0.0286,0.0764,0.0812,0.0851,0.0949,0.1038,0.1117,0.1173,0.1217,0.1277,0.1297,0.1273,0.1191,0.1009,0.0591,0.0362,0.0165,0.018,0.0124,0.0134,0.0144,0.012,0.0098,0.0016,0.0015,0.0015,0.0015,0.0015,0,0.0809,0.0829,0.0913,0.0998,0.1064,0.1113,0.121,0.1234,0.125,0.1256,0.1217,0.1,0.0767,0.0555,0.024,0.0042,0.0084,-0.0009,0.0102,0.0115,0.0127,0.0107,-0.0003,-0.0004,-0.0004,-0.0005,0,0,0.0827,0.0871,0.0887,0.0976,0.1033,0.1108,0.1148,0.1188,0.1206,0.1157,0.1102,0.1039,0.08,0.0565,0.0325,0.0157,0.0181,0.0127,0.0161,0.0333,0.0347,0.022,0.0203,0,0,0,0,0]}],[{"header":{"parameterUnit":"m.s-1","parameterCategory":2,"la1":30.2991,"la2":30.254,"lo1":-89.0895,"lo2":-89.0444,"dy":0.0017,"dx":0.0017,"nx":28,"ny":28,"refTime":"2025-01-23T09:00:00:Z","depth":"4","parameterNumber":2,"parameterNumberName":"U-component_of_CURRENTS"},"data":[0,0,0,0,0,0,0,0,0,0,0,0,0,0,0,0,0,0,0,0,0,0,0,0,0,0,0,0,0,0,0,0,0,0,0,0,0,0,0,0,0,0,0,0,0,0,0,0,0,0,0,0,0,0,0,0,0,0,0.0854,0.0854,0,0.0886,0.0886,0.0887,0.0922,0.0922,0.0923,0.0923,0.0951,0.0952,0.0952,0,0,0,0,0,0,0,0,0,0,0,0,0,0.082,0.0821,0.0854,0.0854,0.0855,0.0886,0.0886,0.0887,0.0921,0.0922,0.0923,0.0923,0.0951,0.0952,0.0952,0,0,0,0,0,0,0,0,0,0,0,0,0,0.0842,0.0821,0.0854,0.0875,0.0878,0.0886,0.0886,0.0887,0.0921,0.0922,0.0923,0.0923,0.0951,0.0952,0.0952,0.0941,0,0,0.0953,0.0954,0,0,0,0,0,0,0,0,0.0841,0.0843,0.0872,0.0874,0.0877,0.09,0.0885,0.0905,0.0921,0.0905,0.0923,0.0924,0.0933,0.0935,0.094,0.0942,0.0943,0.0953,0.0954,0.0954,0.0954,0,0,0,0,0,0,0,0.0839,0.0842,0.0867,0.0872,0.0875,0.0883,0.0887,0.0889,0.0915,0.0907,0.0909,0.0912,0.0935,0.094,0.0941,0.0944,0.0953,0.0954,0.0954,0.0954,0.1005,0.1006,0,0,0,0,0,0,0.0834,0.0841,0.0866,0.0868,0.086,0.0883,0.0887,0.0892,0.0915,0.0919,0.0911,0.0913,0.0938,0.094,0.0942,0.0994,0.0954,0.0954,0.0955,0.1004,0.1005,0.1006,0,0,0,0,0,0,0.0833,0.0836,0.0865,0.0855,0.0859,0.0883,0.0888,0.0892,0.0918,0.0919,0.0923,0.0934,0.0939,0.0941,0.0965,0.0993,0.0955,0.0955,0.1002,0.1004,0.1006,0.1056,0,0,0,0,0,0,0.0832,0.0836,0.0845,0.0854,0.0859,0.0879,0.0887,0.0893,0.0917,0.092,0.0939,0.0941,0.094,0.0965,0.0966,0.0993,0.0955,0.1001,0.1003,0.1005,0.1053,0.1059,0.1064,0,0,0,0,0,0.0831,0.0839,0.0845,0.0848,0.0868,0.088,0.0883,0.0902,0.0917,0.0928,0.0947,0.0942,0.0978,0.0966,0.0967,0.0994,0.1,0.1003,0.1005,0.105,0.1058,0.1064,0,0,0,0,0,0,0.0828,0.0843,0.085,0.0863,0.0874,0.0886,0.09,0.0912,0.0936,0.0945,0.0952,0.0955,0.0993,0.0981,0.0968,0.1015,0.099,0.0992,0.1024,0.1031,0.1036,0.1043,0.0956,0,0,0,0,0,0.083,0.0845,0.0854,0.0867,0.0874,0.0891,0.0902,0.0912,0.093,0.0942,0.0961,0.0979,0.0999,0.1005,0.1021,0.1037,0.1042,0.1056,0.1062,0.1067,0.1073,0.1128,0.114,0.1014,0.1014,0.1014,0,0,0.0834,0.0844,0.0854,0.0868,0.0882,0.089,0.09,0.0919,0.0935,0.094,0.0981,0.1004,0.101,0.1041,0.1055,0.1035,0.11,0.107,0.1074,0.1077,0.1132,0.1145,0.1156,0.1016,0.1015,0.1015,0,0,0.0836,0.0858,0.0864,0.0878,0.0895,0.0903,0.0912,0.0936,0.0959,0.0988,0.1009,0.1046,0.1067,0.1086,0.1093,0.1134,0.1136,0.1144,0.1169,0.1223,0.1234,0.1244,0.1244,0.1253,0.1137,0.1137,0.1137,0,0.0839,0.0847,0.0868,0.0876,0.0887,0.0911,0.0915,0.094,0.0973,0.1006,0.1006,0.1094,0.1087,0.1145,0.1152,0.1148,0.1167,0.1143,0.1232,0.1242,0.1251,0.1249,0.1259,0.114,0.114,0.1139,0.1139,0,0.0836,0.0852,0.086,0.0877,0.0893,0.0905,0.0931,0.0969,0.1001,0.1035,0.1118,0.1136,0.1198,0.1194,0.1176,0.1249,0.1236,0.1242,0.1216,0.1267,0.126,0.127,0.1144,0.1143,0.1142,0.1141,0,0,0.081,0.0848,0.0853,0.0872,0.0894,0.0913,0.0947,0.0992,0.1044,0.1101,0.1195,0.1214,0.1269,0.1281,0.1295,0.1314,0.1367,0.1302,0.1303,0.1302,0.1464,0.1311,0.1306,0.1406,0.1408,0.141,0.1423,0,0.0797,0.0821,0.0835,0.0866,0.088,0.092,0.0962,0.1018,0.1063,0.1169,0.1237,0.1318,0.1293,0.1338,0.1371,0.1366,0.1399,0.136,0.1412,0.1413,0.1274,0.1315,0.1418,0.143,0.1432,0.1434,0.1435,0,0.0768,0.0799,0.0832,0.0886,0.0899,0.0931,0.1014,0.1054,0.1185,0.1228,0.1338,0.141,0.1476,0.1461,0.15,0.1484,0.149,0.1475,0.1476,0.1326,0.1279,0.1374,0.1452,0.145,0.1449,0.1448,0.1447,0,0.0748,0.0783,0.0822,0.0842,0.0918,0.096,0.1003,0.1095,0.1166,0.1293,0.1355,0.1471,0.1532,0.1574,0.1523,0.1541,0.1547,0.1575,0.1452,0.144,0.1551,0.1541,0.1646,0.1646,0.1646,0.1646,0.1646,0,0.0715,0.074,0.0834,0.0873,0.0935,0.0986,0.1078,0.1116,0.1258,0.1337,0.1416,0.1476,0.1566,0.1583,0.1567,0.1493,0.1588,0.1458,0.1443,0.1566,0.1557,0.1556,0.1545,0.1646,0.1646,0.1646,0.1646,0,0.0675,0.0728,0.0792,0.0903,0.0935,0.0995,0.1123,0.1181,0.1278,0.1389,0.1441,0.152,0.149,0.1519,0.154,0.1501,0.1465,0.1429,0.1505,0.1494,0.1325,0.1317,0.1338,0.1333,0.1328,0.1325,0.1322,0,0.0658,0.0696,0.0831,0.0877,0.093,0.103,0.1081,0.119,0.1237,0.1368,0.14,0.1453,0.1474,0.1368,0.1394,0.1359,0.1351,0.1329,0.1386,0.1315,0.13,0.1298,0.1296,0.1315,0.1314,0.1313,0.1312,0,0.0645,0.0712,0.0786,0.0872,0.0933,0.0987,0.1062,0.1121,0.1227,0.1332,0.1339,0.1356,0.1322,0.1304,0.1253,0.1237,0.1339,0.1286,0.1297,0.1351,0.1288,0.1276,0.1279,0.1297,0.1299,0.13,0.1301,0,0.0665,0.0687,0.0789,0.085,0.0908,0.0911,0.0972,0.1017,0.1096,0.1244,0.1234,0.125,0.1314,0.1237,0.1186,0.1144,0.1173,0.1164,0.1182,0.1199,0.114,0.1039,0.0962,0,0,0,0,0,0.0681,0.0683,0.074,0.0786,0.0834,0.0852,0.093,0.0993,0.1112,0.1089,0.1184,0.1144,0.1114,0.1113,0.1046,0.1118,0.1159,0.1034,0.1154,0.1215,0.1232,0.1171,0,0,0,0,0,0,0.0682,0.0732,0.0723,0.0716,0.0732,0.074,0.0788,0.0862,0.0867,0.1002,0.0977,0.1076,0.1036,0.1134,0.1023,0.1024,0.1077,0.1063,0.106,0.1205,0.1221,0.1234,0.1178,0,0,0,0,0]},{"header":{"parameterUnit":"m.s-1","parameterCategory":2,"la1":30.2991,"la2":30.254,"lo1":-89.0895,"lo2":-89.0444,"dy":0.0017,"dx":0.0017,"nx":28,"ny":28,"refTime":"2025-01-23T09:00:00:Z","depth":"4","parameterNumber":3,"parameterNumberName":"V-component_of_CURRENTS"},"data":[0,0,0,0,0,0,0,0,0,0,0,0,0,0,0,0,0,0,0,0,0,0,0,0,0,0,0,0,0,0,0,0,0,0,0,0,0,0,0,0,0,0,0,0,0,0,0,0,0,0,0,0,0,0,0,0,0,0,0.0192,0.0192,0,0.0196,0.0196,0.0196,0.0222,0.0223,0.0223,0.0224,0.0254,0.0254,0.0254,0,0,0,0,0,0,0,0,0,0,0,0,0,0.0186,0.0186,0.0192,0.0192,0.0192,0.0196,0.0196,0.0196,0.0222,0.0223,0.0223,0.0224,0.0254,0.0254,0.0254,0,0,0,0,0,0,0,0,0,0,0,0,0,0.0189,0.0186,0.0192,0.0205,0.0206,0.0196,0.0196,0.0196,0.0222,0.0223,0.0224,0.0224,0.0254,0.0254,0.0254,0.0239,0,0,0.0255,0.0256,0,0,0,0,0,0,0,0,0.0189,0.019,0.0203,0.0204,0.0205,0.0209,0.0205,0.0212,0.0221,0.0216,0.0224,0.0225,0.024,0.0242,0.0241,0.024,0.0241,0.0255,0.0256,0.0256,0.0256,0,0,0,0,0,0,0,0.0189,0.0189,0.0194,0.0203,0.0204,0.0204,0.0205,0.0206,0.0224,0.0217,0.0218,0.0218,0.0241,0.024,0.0242,0.0242,0.0255,0.0256,0.0256,0.0256,0.0234,0.0233,0,0,0,0,0,0,0.0188,0.0189,0.0194,0.0194,0.0199,0.0203,0.0205,0.0207,0.0223,0.0226,0.0217,0.0219,0.0239,0.0241,0.0243,0.0231,0.0256,0.0256,0.0256,0.0235,0.0234,0.0233,0,0,0,0,0,0,0.0188,0.0188,0.0193,0.0191,0.0192,0.0202,0.0205,0.0207,0.0212,0.0224,0.0227,0.0221,0.024,0.0242,0.0244,0.0232,0.0256,0.0257,0.0236,0.0234,0.0233,0.0204,0,0,0,0,0,0,0.0187,0.0188,0.0189,0.0191,0.0192,0.0188,0.0204,0.0206,0.021,0.0212,0.0227,0.0231,0.0241,0.0243,0.0244,0.0233,0.0257,0.0237,0.0235,0.0234,0.0206,0.0202,0.0199,0,0,0,0,0,0.0187,0.0182,0.0189,0.019,0.0193,0.0187,0.0188,0.0198,0.0209,0.0207,0.0216,0.0231,0.0234,0.0243,0.0244,0.0233,0.0237,0.0235,0.0234,0.0208,0.0203,0.0199,0,0,0,0,0,0,0.0176,0.0184,0.0192,0.0189,0.019,0.0192,0.019,0.0197,0.0202,0.0208,0.0222,0.0225,0.0219,0.0228,0.0238,0.0221,0.0237,0.0235,0.0217,0.0212,0.0208,0.0203,0.0257,0,0,0,0,0,0.0174,0.0178,0.0181,0.0179,0.0179,0.0185,0.0185,0.0192,0.0196,0.02,0.0207,0.0213,0.021,0.0215,0.0214,0.0207,0.0193,0.02,0.0196,0.0193,0.0189,0.0153,0.0145,0.0227,0.0227,0.0227,0,0,0.017,0.0175,0.0177,0.0178,0.018,0.0183,0.0187,0.0187,0.0187,0.0201,0.0203,0.02,0.0204,0.0195,0.0194,0.0205,0.0159,0.0191,0.0188,0.0185,0.015,0.0142,0.0135,0.0226,0.0226,0.0226,0,0,0.0172,0.0166,0.0179,0.0176,0.0181,0.0178,0.0178,0.018,0.0179,0.0176,0.0181,0.0164,0.0176,0.0163,0.0162,0.0134,0.0138,0.0143,0.0125,0.009,0.0083,0.0076,0.0035,0.0026,0.0145,0.0145,0.0145,0,0.0172,0.0184,0.0178,0.0187,0.0187,0.0177,0.0186,0.0176,0.0177,0.0169,0.0177,0.0158,0.0154,0.0133,0.0121,0.0124,0.011,0.0143,0.0084,0.0078,0.0072,0.0031,0.0021,0.0144,0.0144,0.0144,0.0144,0,0.0189,0.0194,0.0195,0.0207,0.0202,0.02,0.0188,0.0176,0.0171,0.0162,0.0138,0.0122,0.0116,0.0102,0.0105,0.0062,0.0067,0.008,0.0096,0.0062,0.0021,0.0011,0.0141,0.0142,0.0142,0.0143,0,0,0.0204,0.021,0.0212,0.0218,0.0211,0.0207,0.0193,0.0175,0.016,0.0144,0.0132,0.0093,0.0084,0.008,0.0072,0.003,-0.0038,0.004,0.0039,-0.0001,-0.0116,-0.0066,-0.0072,-0.0025,-0.0027,-0.0028,-0.0132,0,0.0225,0.024,0.0241,0.0247,0.0247,0.0228,0.0216,0.0194,0.0165,0.0144,0.0109,0.0096,0.0078,0.0077,0.003,-0.0025,-0.0064,-0.0012,-0.0077,-0.008,-0.003,-0.0081,-0.0033,-0.014,-0.0142,-0.0144,-0.0145,0,0.0255,0.0253,0.0271,0.026,0.026,0.0265,0.023,0.022,0.0175,0.0153,0.0122,0.0108,0.0043,0.0049,-0.0075,-0.0035,-0.0074,-0.0119,-0.0123,-0.0071,-0.0047,-0.0096,-0.0164,-0.0162,-0.0161,-0.016,-0.0159,0,0.027,0.0275,0.0289,0.0287,0.0275,0.0279,0.027,0.0227,0.0224,0.0169,0.0156,0.0084,0.0065,-0.0018,-0.0104,-0.0089,-0.0231,-0.0219,-0.0212,-0.021,-0.021,-0.0202,-0.0288,-0.0288,-0.0288,-0.0288,-0.0287,0,0.0289,0.0292,0.03,0.0305,0.031,0.03,0.0304,0.0266,0.0252,0.0248,0.0177,0.0157,0.0052,-0.0026,-0.0112,-0.0202,-0.0238,-0.0231,-0.0235,-0.0221,-0.0213,-0.0218,-0.0209,-0.0292,-0.0291,-0.029,-0.0289,0,0.0297,0.0309,0.0317,0.0316,0.0326,0.0327,0.0352,0.0346,0.0311,0.0306,0.0303,0.0215,0.0097,-0.0015,-0.0155,-0.0196,-0.03,-0.0307,-0.03,-0.0299,-0.0257,-0.0248,-0.0333,-0.0333,-0.0332,-0.0331,-0.0331,0,0.0293,0.0309,0.0332,0.0353,0.0361,0.0378,0.0396,0.0382,0.0383,0.0339,0.0339,0.025,0.018,-0.0003,-0.0126,-0.0291,-0.0284,-0.0335,-0.0291,-0.0268,-0.0264,-0.0255,-0.0248,-0.0329,-0.0329,-0.0329,-0.0329,0,0.0277,0.0305,0.0316,0.0372,0.0404,0.0421,0.0445,0.0472,0.0458,0.0426,0.0383,0.0302,0.0182,0.0032,-0.0082,-0.0198,-0.0317,-0.0328,-0.033,-0.0288,-0.0264,-0.0259,-0.0252,-0.0326,-0.0327,-0.0327,-0.0327,0,0.0276,0.0278,0.0333,0.0386,0.0425,0.0462,0.0471,0.0488,0.0499,0.0469,0.0456,0.0315,0.0239,0.0081,-0.0042,-0.0142,-0.0154,-0.0168,-0.0178,-0.0182,-0.0095,-0.004,-0.0049,0,0,0,0,0,0.0279,0.0308,0.0346,0.04,0.0446,0.0477,0.0505,0.0513,0.0521,0.051,0.0496,0.0387,0.0229,0.0133,0.0045,-0.0033,-0.0182,-0.0137,-0.0205,-0.0312,-0.0315,-0.0232,0,0,0,0,0,0,0.0278,0.0323,0.0346,0.0421,0.0472,0.0508,0.0537,0.0536,0.0529,0.0523,0.0428,0.0388,0.0211,0.0282,0.0049,0.0014,-0.0032,-0.0224,-0.0225,-0.031,-0.0313,-0.0315,-0.0231,0,0,0,0,0]}]]